Lancaster, PA

6:03 AM EST on February 21, 2017 (GMT -0500)
Lancaster

Weather History for KLNS - January, 2014

Change the Weather History Date:

Sunday, January 19, 2014

  Actual Average Record
Temperature  
Mean Temperature 28 °F -  
Max Temperature 37 °F 37 °F 67 °F (1990)
Min Temperature 18 °F 21 °F 3 °F (1997)
Degree Days  
Heating Degree Days 38    
Moisture  
Dew Point 15 °F    
Average Humidity 59    
Maximum Humidity 66    
Minimum Humidity 52    
Precipitation  
Precipitation 0.00 in - - ()
Sea Level Pressure  
Sea Level Pressure 29.80 in    
Wind  
Wind Speed 7 mph (WSW)    
Max Wind Speed 13 mph    
Max Gust Speed -    
Visibility 10 miles    
Events      
Averages and records for this station are not official NWS values.
T = Trace of Precipitation, MM = Missing Value Source: NWS Daily Summary

Daily Weather History Graph

Daily Weather History Graph

Search for Another Location

Airport or City:

Trip Planner

Search our weather history database for the weather conditions in past years. The results will help you decide how hot, cold, wet, or windy it might be!

Date:

Astronomy

Jan. 19, 2014 Rise Set
Actual Time 7:23 AM EST 5:08 PM EST
Civil Twilight 6:54 AM EST 5:38 PM EST
Nautical Twilight 6:20 AM EST 6:11 PM EST
Astronomical Twilight 5:48 AM EST 6:43 PM EST
Moon 8:44 PM EST (1/19) 8:52 AM EST (1/19)
Length of Visible Light 10h 44m
Length of Day
9h 45m
Waning Gibbous, 89% of the Moon is Illuminated
Jan 19
Waning Gibbous
Jan 24
Last Quarter
Jan 30
New
Feb 6
First Quarter
Feb 14
Full

Hourly Weather History & Observations

Time (EST) Temp. Windchill Dew Point Humidity Pressure Visibility Wind Dir Wind Speed Gust Speed Precip Events Conditions
12:53 AM 19.0 °F 10.0 °F 8.1 °F 62% 29.94 in 10.0 mi West 6.9 mph - N/A   Clear
1:53 AM 19.0 °F 10.0 °F 9.0 °F 65% 29.91 in 10.0 mi West 6.9 mph - N/A   Mostly Cloudy
2:53 AM 19.9 °F 13.4 °F 10.0 °F 65% 29.92 in 10.0 mi West 4.6 mph - N/A   Overcast
3:53 AM 19.9 °F 11.1 °F 8.1 °F 60% 29.90 in 10.0 mi West 6.9 mph - N/A   Mostly Cloudy
4:53 AM 18.0 °F 12.7 °F 8.1 °F 65% 29.88 in 10.0 mi West 3.5 mph - N/A   Scattered Clouds
5:53 AM 19.9 °F - 10.0 °F 65% 29.87 in 10.0 mi Calm Calm - N/A   Overcast
6:53 AM 19.9 °F - 9.0 °F 62% 29.85 in 10.0 mi Calm Calm - N/A   Overcast
7:53 AM 19.9 °F 14.9 °F 10.0 °F 65% 29.83 in 10.0 mi SSE 3.5 mph - N/A   Overcast
8:53 AM 21.9 °F 17.2 °F 12.0 °F 66% 29.83 in 10.0 mi South 3.5 mph - N/A   Overcast
9:53 AM 24.1 °F 17.0 °F 10.9 °F 57% 29.83 in 10.0 mi SSW 5.8 mph - N/A   Mostly Cloudy
10:53 AM 26.1 °F 18.4 °F 12.9 °F 58% 29.82 in 10.0 mi West 6.9 mph - N/A   Overcast
11:53 AM 28.0 °F 20.0 °F 15.1 °F 58% 29.79 in 10.0 mi WSW 8.1 mph - N/A   Overcast
12:53 PM 30.0 °F 22.4 °F 16.0 °F 56% 29.75 in 10.0 mi WSW 8.1 mph - N/A   Overcast
1:53 PM 32.0 °F 24.2 °F 19.0 °F 59% 29.73 in 10.0 mi SW 9.2 mph - N/A   Mostly Cloudy
2:53 PM 35.1 °F 27.4 °F 21.0 °F 57% 29.72 in 10.0 mi West 10.4 mph - N/A   Clear
4:53 PM 37.0 °F 29.3 °F 21.9 °F 54% 29.72 in 10.0 mi WSW 11.5 mph - N/A   Clear
5:53 PM 36.0 °F 28.5 °F 21.9 °F 57% 29.73 in 10.0 mi WSW 10.4 mph - N/A   Partly Cloudy
6:53 PM 36.0 °F 27.5 °F 21.0 °F 55% 29.73 in 10.0 mi WSW 12.7 mph - N/A   Clear
7:53 PM 36.0 °F 28.0 °F 19.9 °F 52% 29.73 in 10.0 mi WSW 11.5 mph - N/A   Clear
8:53 PM 35.1 °F 27.9 °F 19.9 °F 54% 29.73 in 10.0 mi WSW 9.2 mph - N/A   Clear
9:53 PM 35.1 °F 27.4 °F 19.0 °F 52% 29.72 in 10.0 mi SW 10.4 mph - N/A   Clear
10:53 PM 34.0 °F 26.6 °F 19.0 °F 54% 29.71 in 10.0 mi WSW 9.2 mph - N/A   Clear
11:53 PM 33.1 °F 27.7 °F 19.0 °F 56% 29.69 in 10.0 mi WSW 5.8 mph - N/A   Clear